Accueil
METAR-TAF:

METAR-TAF

Aéroports :

Meppen, Allemagne

Base aérienne

latitude: 52-43-24N, longitude: 007-19-35E, altitude: 21 m

Observation

Le bulletin a été fait il y a 38 minutes, à 10:20 UTC
Vent 13 kt de sud-ouest
Température 11°C
Humidité 82%
Pression 1005 hPa
Visibilité 10 km ou plus
Nuages fragmentés à une hauteur de 1900 ft

METAR: ETWM 221020Z 22013KT 9999 BKN019 11/08 Q1005 WHT

Heure: 11:58 (10:58 UTC)


TAF: absent

Observations et prévisions météorologiques de plus de 4000 aéroports (messages METAR et TAF).

Les stations disponibles sont représentées par des disques jaunes et rouges sur la carte.

Passer la souris dessus pour voir le nom de la station.

Cliquer dessus pour voir les observations et prévisions météorologiques.

Pour changer de carte: cliquez sur les boutons verts avec une croix noire pour zoomer, sur le bouton vert avec un tiret pour effectuer un zoom arrière, ou sur les flèches vertes pour les cartes adjacentes.


METAR-TAF: